Location: Newark
(44.5869°N, 123.1150°W)
Time: 07:36:27
(UTC+00:00)

N. Korean satellite - Visible Passes

Search period start: 23 September 2020 00:00
Search period end: 03 October 2020 00:00
Orbit: 455 x 503 km, 97.2° (Epoch: 22 September)

Date Brightness Start Highest point End Pass type
(mag) Time Alt. Az. Time Alt. Az. Time Alt. Az.
25 Sep 9.0 13:12:43 10° NE 13:15:54 28° E 13:19:02 10° SSE visible
26 Sep 9.9 12:47:41 10° ENE 12:49:41 14° E 12:51:41 10° SE visible
28 Sep 8.0 13:27:46 10° NNE 13:31:15 43° E 13:34:39 10° S visible
29 Sep 9.5 13:02:17 10° NE 13:05:05 21° E 13:07:51 10° SE visible
30 Sep 10.3 12:38:09 10° ENE 12:38:49 10° E 12:39:30 10° E visible
02 Oct 8.7 13:17:10 10° NNE 13:20:25 31° E 13:23:36 10° SSE visible
